Location: Baili�vre
(50.0696°N, 4.2409°E)
Time: 07:25:51
(UTC+00:00)

Cosmos 2333 Rocket - Pass Details

Date: 08 August 2020
Orbit: 838 x 864 km, 70.8° (Epoch: 26 September)

Event Time Altitude Azimuth Distance (km) Brightness Sun altitude
Rises 22:30:37 0° 332° (NNW) 3,456 6.9 -21.9°
Reaches altitude 10° 22:33:14 10° 339° (NNW) 2,516 5.8 -22.1°
Maximum altitude 22:38:43 42° 50° (NE) 1,211 3.1 -22.4°
Enters shadow 22:41:23 27° 103° (ESE) 1,615 3.4 -22.5°
